Tracking 19245 objects as of 18-Aug-2018
HD Live streaming from Space Station
objects crossing your sky now

OPS 5798 (TRANSIT 5B-4)

Track OPS 5798 (TRANSIT 5B-4) now!
10-day predictions
OPS 5798 (TRANSIT 5B-4) is classified as:


NORAD ID: 897
Int'l Code: 1964-063B
Perigee: 1,053.1 km
Apogee: 1,080.6 km
Inclination: 90.2 °
Period: 106.4 minutes
Semi major axis: 7437 km
RCS: 0.5573 m2 (medium)
Launch date: October 6, 1964
Source: United States (US)
Launch site: AIR FORCE WESTERN TEST RANGE (AFWTR)
aabbcc
Your satellite tracking list
Your tracking list is empty




NASA's NSSDC Master Catalog

Two Line Element Set (TLE):
1   897U 64063B   18228.94232370 +.00000003 +00000-0 -89361-5 0  9990
2   897 090.1514 020.1897 0018495 208.7473 264.6947 13.53424182658191
Source of the keplerian elements: AFSPC